Volver al catálogo

ONEWEB-0181

ActivoComunicacionesPO
NORAD 48230·PAYLOAD·🇬🇧 United Kingdom

Lanzado Apr 25, 2021 desde Vostochny Cosmodrome

Loading…

Próximos Pases (próximas 24 horas)

TLE

ActualizadoSource: CelesTrak SupGP

Época: Sep 14, 2026, 16:57 UTC

1 48230C 21031W   26257.70675185 -.00002923  00000+0 -78944-2 0  2573
2 48230  87.8892 271.8656 0001587  95.9708   4.0827 13.14506547    13

Sigue ONEWEB-0181 en tiempo real con AllMySat

Download on the App Store